Hourly Data Report for October 18, 2014

All times are specified in Local Standard Time (LST). Add 1 hour to adjust for Daylight Saving Time where and when it is observed.

KITCHENER/WATERLOO
ONTARIO

43°27'39.000" N
80°22'43.000" W
321.60 m
6144239
71368
YKF

Download Data

Hourly Data (October 2014)
Hourly Data Report for October 18, 2014
Temp Definition
°C
Dew Point Temp Definition
°C
Rel Hum Definition
%
Wind Dir Definition
10's deg

Wind Spd Definition
km/h
Visibility Definition
km
Stn Press Definition
kPa
Hmdx Definition


Wind Chill Definition


Weather Definition


TIME
00:00 Legend Double Dagger 10.7 9.4 91 25 18 16.1 96.18     LegendNANA
01:00 Legend Double Dagger 10.0 8.5 90 26 30 16.1 96.20     LegendNANA
02:00 Legend Double Dagger 9.5 8.1 91 26 22 16.1 96.19     LegendNANA
03:00 Legend Double Dagger 8.5 7.1 91 29 21 16.1 96.22     LegendNANA
04:00 Legend Double Dagger 8.2 6.8 91 29 21 16.1 96.25     Rain
05:00 Legend Double Dagger 7.4 6.2 92 28 21 16.1 96.33     LegendNANA
06:00 Legend Double Dagger 7.1 5.7 91 29 21 16.1 96.42     LegendNANA
07:00 Legend Double Dagger 7.3 6.1 92 29 18 12.9 96.51     LegendNANA
08:00 Legend Double Dagger 7.3 5.6 89 30 21 16.1 96.61     LegendNANA
09:00 Legend Double Dagger 8.0 5.6 85 31 18 16.1 96.71     LegendNANA
10:00 Legend Double Dagger 8.3 5.3 81 31 24 16.1 96.78     LegendNANA
11:00 Legend Double Dagger 7.9 5.1 83 32 28 16.1 96.88     LegendNANA
12:00 Legend Double Dagger 7.7 4.9 82 32 24 16.1 96.95     LegendNANA
13:00 Legend Double Dagger 7.8 3.6 75 33 28 16.1 97.03     LegendNANA
14:00 Legend Double Dagger 7.6 2.5 70 34 34 16.1 97.08     LegendNANA
15:00 Legend Double Dagger 7.2 2.4 71 33 28 16.1 97.19     LegendNANA
16:00 Legend Double Dagger 6.4 2.0 74 33 32 16.1 97.29     LegendNANA
17:00 Legend Double Dagger 5.5 2.3 80 33 32 16.1 97.40     LegendNANA
18:00 Legend Double Dagger 5.1 1.5 77 34 34 16.1 97.48     LegendNANA
19:00 Legend Double Dagger 4.2 1.6 83 32 18 16.1 97.59     LegendNANA
20:00 Legend Double Dagger 3.3 0.8 83 33 17 16.1 97.67     LegendNANA
21:00 Legend Double Dagger 3.5 -0.3 76 32 21 16.1 97.70     LegendNANA
22:00 Legend Double Dagger 4.0 -0.2 74 32 21 16.1 97.75     LegendNANA
23:00 Legend Double Dagger 3.8 0.0 76 33 18 16.1 97.79     LegendNANA

Notes on Data Quality.

Legend

  • E = Estimated
  • M = Missing
  • NA = Not Available
  • ‡ = Partner data that is not subject to review by the National Climate Archives
Date modified: